Regional Weather Roundup
Issued by NWS

Home | Current Version | Previous Version | Text Only | Print | Product List | Glossary On
Versions: 1 2 3 4 5 6 7 8 9 10 11 12 13 14 15 16 17 18 19 20 21 22 23 24 25 26 27 28 29 30 31 32 33 34 35 36 37 38 39 40 41 42 43 44 45 46 47 48 49 50
000
ASUS43 KDTX 301610
RWRMI
MICHIGAN HOURLY REGIONAL WEATHER ROUNDUP
NATIONAL WEATHER SERVICE DETROIT/PONTIAC MI
1200 PM EDT SAT AUG 30 2014

NOTE: "FAIR" INDICATES FEW OR NO CLOUDS BELOW 12,000 FEET WITH NO
SIGNIFICANT WEATHER AND/OR OBSTRUCTION TO VISIBILITY.

MIZ047>049-052>055-059>063-066>070-074>076-081>083-301700-
SOUTHEAST LOWER MICHIGAN

CITY           SKY/WX    TMP DP  RH WIND       PRES   REMARKS
ADRIAN         CLOUDY    80  66  62 SW12G20   29.96F
ALMA           CLOUDY    74  70  87 S9G20     29.89S
ANN ARBOR      PTSUNNY   79  67  66 SW9       29.95S
BAD AXE        LGT RAIN  74  70  86 SW12G20   29.92S
DETROIT CITY   MOSUNNY   84  67  56 S14       29.94F
DETROIT        PTSUNNY   83  68  60 S17       29.95F
FLINT          PTSUNNY   80  67  64 S9        29.92F
GROSSE ILE     MOSUNNY   79  72  78 S10       29.94F
HILLSDALE      CLOUDY    78  69  73 SW9       29.97S
HOWELL         PTSUNNY   76  68  75 SW9G18    29.94F

CITY           SKY/WX    TMP DP  RH WIND       PRES   REMARKS
JACKSON        CLOUDY    78  68  71 SW10      29.94F
LAMBERTVILLE   CLOUDY    81  68  65 SW7       29.97S
LANSING        CLOUDY    75  68  78 S13       29.92S
LAPEER         NOT AVBL
MASON          CLOUDY    75  68  78 S5        29.93F
MONROE         PTSUNNY   82  66  57 SW16      29.94F
MT. CLEMENS    PTSUNNY   82  68  62 S14       29.92F
PONTIAC        PTSUNNY   78  66  66 S10       29.93F
PORT HOPE        N/A     80  67  64 SW12G22   29.87F
PORT HURON     PTSUNNY   81  70  69 S12       29.94F
TRI CITIES     CLOUDY    75  69  81 S10       29.89F
YPSILANTI      PTSUNNY   84  67  56 S15G21    29.95F
$$
MIZ043>046-050>051-056>058-064>065-071>073-077>080-301700-
SOUTHWEST LOWER MICHIGAN

CITY           SKY/WX    TMP DP  RH WIND       PRES   REMARKS
BATTLE CREEK   CLOUDY    75  68  78 S16G24    29.93F
BENTON HARBOR  PTSUNNY   79  70  74 S14       29.88S
BIG RAPIDS     CLOUDY    76  72  88 S7        29.85S
COLDWATER      CLOUDY    77  69  77 SW10      29.96R
HOLLAND        PTSUNNY   79  70  74 SW17      29.88S
GRAND RAPIDS   CLOUDY    77  74  90 S13       29.88F
KALAMAZOO      CLOUDY    77  69  76 S14       29.91F
MARSHALL       CLOUDY    74  68  82 SW9G20    29.94S
MUSKEGON       PTSUNNY   76  69  79 S18G28    29.85R
$$
MIZ016>042-301700-
NORTHERN LOWER MICHIGAN

CITY           SKY/WX    TMP DP  RH WIND       PRES   REMARKS
ALPENA         CLOUDY    71  69  93 S12       29.83F
BEAVER ISLAND  CLOUDY    73  70  90 SW8G24    29.76S
BELLAIRE       CLOUDY    76  69  81 S7        29.78F
CADILLAC       PTSUNNY   75  69  81 S10G17    29.84S
CHARLEVOIX     PTSUNNY   74  72  92 S7        29.80S
FRANKFORT      MOSUNNY   77  67  73 S15G26    29.79R
GAYLORD        CLOUDY    72  69  90 S13       29.83F
GRAYLING       CLOUDY    74  69  84 S7        29.84F
HARBOR SPRINGS CLOUDY    74  70  88 SW5       29.78F
HOUGHTON LAKE  CLOUDY    74  69  85 S9        29.85F
MANISTEE       CLOUDY    75  66  73 S12       29.81S
OSCODA         CLOUDY    70  68  93 S8        29.85S
PELLSTON       CLOUDY    72  70  93 VRB5      29.79S
TRAVERSE CITY  PTSUNNY   77  68  73 SW8G16    29.77S
$$
MIZ007>008-015-301700-
EASTERN UPPER MICHIGAN

CITY           SKY/WX    TMP DP  RH WIND       PRES   REMARKS
KINROSS        CLOUDY    68  66  94 SE10      29.78F
MACKINAC ISLAN CLOUDY    70  69  98 S9        29.78F
NEWBERRY       CLOUDY    67  66  97 S7        29.76S FOG
S. S. MARIE    CLOUDY    65  63  93 E6        29.78S FOG
$$
MIZ004>006-011>014-085-301700-
CENTRAL UPPER MICHIGAN

CITY           SKY/WX    TMP DP  RH WIND       PRES   REMARKS
MANISTIQUE     FOG       66  66 100 S5        29.75S VSB 1/4
ESCANABA       CLOUDY    66  64  94 SE8       29.73S VSB 1
MENOMINEE      PTSUNNY   73  66  78 SW9       29.72S
SAWYER-GWINN   HVY RAIN  64  64 100 CALM      29.78R
$$
MIZ001>003-009>011-084-301700-
WESTERN UPPER MICHIGAN

CITY           SKY/WX    TMP DP  RH WIND       PRES   REMARKS
IRON MOUNTAIN  LGT RAIN  66  64  93 N6        29.76S FOG
HOUGHTON       CLOUDY    59  56  89 NE7       29.81R
COPPER HARBOR    N/A     56  54  93 NE7       29.81R
$$

ABBREVIATIONS USED IN REMARKS
   TC - TEMPERATURE IN CELSIUS
  WCI - WIND CHILL INDEX
   HX - HEAT INDEX
  VSB - VISIBILITY



USA.gov is the U.S. government's official web portal to all federal, state and local government web resources and services.